Current Version              Previous Version:    01  02  03  04  05  06  07  08  09  10  11  12  13  14  15  16  17  18  19  20  21  22  23  24  25  26  27  28  29  30  
   31  32  33  34  35  36  37  38  39  40  41  42  43  44  45  46  47  48  49  50  51  52  53  54  55  56  57  58  59  60  

[Printable]
906
ASUS44 KEWX 231110
RWRTX
SOUTH TEXAS REGIONAL WEATHER ROUNDUP
NATIONAL WEATHER SERVICE AUSTIN/SAN ANTONIO TX
500 AM CST SUN NOV 23 2014

NOTE: "FAIR" INDICATED FEW OR NO CLOUDS BELOW 12,000 FEET WITH NO
SIGNIFICANT WEATHER AND/OR OBSTRUCTIONS TO VISIBILITY.

* - THESE STATIONS ARE NOT NWS OR FAA STATIONS...AND ARE NOT SUBJECT
    TO NWS AND FAA QUALITY CONTROL.

TXZ171-172-183>190-231200-
TEXAS HILL COUNTRY AND EDWARDS PLATEAU

CITY           SKY/WX    TMP DP  RH WIND       PRES   REMARKS
JUNCTION       CLEAR     47  46  97 CALM      29.69F
*LLANO         FOG       48  48 100 CALM      29.69F VSB 1/2
BURNET         CLEAR     52  51  97 MISG      29.68F
*HORSESHOE BAY CLEAR     50  50 100 CALM      29.67F
*KERRVILLE     PTCLDY    45  44  95 CALM      29.71F
*FREDERICKSBRG CLEAR     50  50  98 W5        29.69F WCI  49
*ROCKSPRINGS   CLEAR     52  43  71 MISG      29.74F
*BOERNE STAGE  PTCLDY    52  50  93 W5        29.71F
*CASTROVILLE   CLEAR     50  49  97 S6        29.73S WCI  48
HONDO          CLEAR     44  44 100 CALM      29.74R
*UVALDE        CLEAR     48  47  97 CALM      29.73F FOG
DEL RIO        PTCLDY    47  46  97 SE3       29.71F FOG
LAUGHLIN AFB   CLEAR     46  45  96 CALM      29.72F
CARRIZO SPRGS  CLEAR     46  45  93 CALM      29.72F
$$

TXZ173-191>194-202-209-217>225-228-231200-
CENTRAL AND SOUTH CENTRAL TEXAS

CITY           SKY/WX    TMP DP  RH WIND       PRES   REMARKS
GEORGETOWN     MOCLDY    55  54  94 SW5       29.66F
AUSTIN/BERGSTM PTCLDY    54  54 100 SW6       29.67F
AUSTIN/MABRY   MOCLDY    55  55 100 CALM      29.68F
*AUSTIN/EXEC   CLOUDY    55  55 100 SW5       29.67F
*LAGO VISTA    PTCLDY    56  54  94 SW6       29.68S
SAN MARCOS     CLEAR     54  54 100 SW5       29.69F
NEW BRAUNFELS  CLEAR     55  53  93 SW6       29.68F FOG
RANDOLPH AFB   CLEAR     56  54  92 SW5       29.70S
PT SAN ANTONIO CLEAR     53  51  95 CALM      29.70S
SAN ANTONIO    PTCLDY    55  52  89 CALM      29.71S
STINSON FIELD  CLEAR     51  50  96 SW6       29.70S
*PLEASANTON    CLEAR     50  48  95 W3        29.73S
*LA GRANGE     CLOUDY    61  60  96 SW5       29.66S
*GIDDINGS      CLOUDY    59  58  97 SW5       29.70S
*GONZALES      CLOUDY    56  56  99 SW3       29.68F
$$

TXZ163>164-176>182-195>201-210>213-226-227-235-231200-
SOUTHEAST TEXAS

CITY           SKY/WX    TMP DP  RH WIND       PRES   REMARKS
COLLEGE STN    CLOUDY    58  58 100 SW7       29.64S
*BRYAN         CLOUDY    58  58  98 SW8G17    29.65F
*CALDWELL      CLOUDY    57  57 100 SW7       29.69S
*CROCKETT      CLOUDY    64  64 100 SW6       29.64F
*BRENHAM       CLOUDY    60  60  97 W6        29.66S
HUNTSVILLE     CLOUDY    59  58  96 SW6       29.62R
CONROE         MOCLDY    58  57  97 CALM      29.63S
HOUSTON BUSH   MOCLDY    62  60  93 S6        29.62S
HOUSTON HOBBY  PTCLDY    61  59  93 S10       29.63F
*HOUSTON SW AP PTCLDY    51  51 100 SW7       29.66S
PEARLAND       PTCLDY    61  59  93 S13       29.66F
HOUSTON HOOKS  MOCLDY    62  61  96 S7        29.63R
ELLINGTON FLD  PTCLDY    61  59  94 S8        29.65
SUGAR LAND     CLOUDY    62  60  93 SW15G21   29.65R
*HOUSTON EXEC  FOG       63 N/A N/A SW10      29.66R VSB 1/2
*CLEVELAND MUN NOT AVBL
*WHARTON       CLEAR     58  57  96 SW8       29.70R
*COLUMBUS      FAIR      59  58  96 SW7       29.67R
$$

TXZ214>216-236>238-231200-
THE UPPER TEXAS COAST

CITY           SKY/WX    TMP DP  RH WIND       PRES   REMARKS
*ORANGE        CLOUDY   N/A N/A N/A N3        29.59F
PORT ARTHUR    CLOUDY    61  59  93 W12       29.60R
GALVESTON      PTCLDY    62  60  93 S10       29.68R
ANGLETON       PTCLDY    59  59 100 SW7       29.67S
*BAY CITY        N/A     61  60  99 SW7       29.68S
PALACIOS       CLEAR     60  58  92 SW8       29.70R
$$

TXZ229>234-239>247-231200-
TEXAS COASTAL BEND AND RIO GRANDE PLAINS

CITY           SKY/WX    TMP DP  RH WIND       PRES   REMARKS
VICTORIA       CLEAR     59  55  87 SW8       29.70S
*BEEVILLE      CLEAR     55  55  98 CALM      29.72F
ROCKPORT       CLEAR     61  59  93 W7        29.71F
*PORT ARANSAS  CLEAR     61  60  96 W6        29.73S
*PORT LAVACA   CLEAR     58  56  95 SW7       29.71S
*INGLESIDE     CLEAR     59  58  94 SW6       29.72S
CORPUS CHRISTI CLEAR     59  58  96 SW6       29.73F
CORPUS NAS     PTCLDY    61  61 100 SW8       29.72F
*ROBSTOWN      NOT AVBL
ALICE          FOG       58  57  97 SW5       29.73F VSB 3/4
KINGSVILLE NAS NOT AVBL
COTULLA        CLEAR     52  49  89 CALM      29.73S
*FAITH RANCH   CLEAR     54  48  82 W6        29.74S
LAREDO         CLEAR     55  51  86 NW5       29.77S
$$

TXZ248>255-231200-
DEEP SOUTH TEXAS

CITY           SKY/WX    TMP DP  RH WIND       PRES   REMARKS
BROWNSVILLE    CLEAR     61  60  97 NW5       29.77S FOG
PORT ISABEL    CLEAR     60  60 100 W5        29.76S FOG
*SOUTH PADRE   CLEAR    N/A N/A N/A CALM      29.76R
HARLINGEN      FOG       60  60 100 W5        29.76S VSB 1/4
*HEBBRONVILLE  CLEAR     58  54  85 W8        29.75S
MCALLEN        FOG       61  61 100 CALM      29.77F VSB 1/4
*WESLACO       FOG       62  60  94 W3        29.77S VSB<1/4
FALFURRIAS     CLEAR     57  56  95 CALM      29.75S
EDINBURG       FOG       64  62  93 SW3       29.77S VSB 1/4
*ZAPATA        NOT AVBL
$$

TXZ213>215-236>238-242>244-246-247-251-254-255-231200-
CMAN STATIONS

STATION/POSITION TIME  TEMP    WIND        PRES    WAVE
                       AIR SEA DIR/SP/G            HT/PER
                 (UTC) (F)     (DEG/KT/KT) (MB)    (FT/S)
SABINE PASS      1100   61 59  110/  2/ 12 1001.6
SEA RIM ST PARK  1100   60     200/  7/  7 1004.3
NORTH JETTY/GLS  1100   62 60  250/ 12/ 16   N/A
EAGLE POINT      1100   60 57  210/ 10/ 11 1004.1
MORGANS POINT    1100   61     170/  6/  8 1003.7
MISSION/ARANSAS  1000          220/ 11     1007.0
PORT O`CONNOR    1100          240/ 13/ 15   N/A
PORT ARANSAS     1100   62 61  230/  9/ 10 1006.6
MALAQUITE BEACH  1100   62 66  230/  4/  5 1006.1
BAFFIN BAY       1100   60 74  260/ 10/ 12 1006.9
PORT ISABEL      1100   62 66  300/  3/  5 1007.8
$$

GMZ080-GMZ150>470-231200-
OFFSHORE BUOY REPORTS

STATION/POSITION TIME  TEMP    WIND        PRES    WAVE
                       AIR SEA DIR/SP/G            HT/PER
                 (UTC) (F)     (DEG/KT/KT) (MB)    (FT/S)
20 E GALVESTON   1100   62 61  170/  8/  8 1004.3    4/ 8
90 E PT ARANSAS  1100   70 73  230/ 17/ 21 1006.1    7/ 8
35 NE PT MANSFLD 1100   70 74  230/ 12/ 14 1006.7    5/ 7
200 E PT ISABEL  1100   67 74   10/ 12/ 16 1009.7    7/ 8
$$